Theta_e
299 301 302 302 302 303 301 300 303 306 307 307 306 306 307 307 307 308 306 302 299 303 307 304 304 304 302 302 301 299 300 299 299 300 299 300 301 301 301 301 302 303 305 305 304 303 303 303 303 303 303 303 303 302 302 302 302 302 302 302 302 302 303 305 305 305 304 304 309 315 315 313 311 311 310 310 310 309 309 310 312 317 316 313 317 326
299 301 300 301 304 304 302 301 303 304 304 307 307 307 307 307 310 307 301 302 301 302 306 305 304 304 301 302 301 299 300 300 300 300 299 300 301 301 301 301 303 304 304 304 304 303 303 303 303 303 303 303 303 302 302 302 302 302 302 302 302 302 303 304 304 304 304 303 309 314 312 311 311 310 311 310 310 309 309 310 311 313 316 314 314 321
301 301 301 301 303 303 302 302 302 301 302 305 306 305 305 305 308 307 301 301 303 303 307 306 304 303 303 302 302 301 302 301 300 300 301 301 300 301 301 302 304 304 304 304 304 303 303 303 303 303 303 303 302 301 302 302 302 302 302 302 302 302 303 303 304 304 303 304 310 313 311 311 311 310 311 310 310 310 309 311 310 309 313 315 313 318
303 303 301 300 301 302 302 302 303 302 301 303 305 303 303 304 305 308 305 301 302 302 302 305 303 302 303 304 303 301 299 299 300 300 300 300 301 301 301 302 303 304 305 304 304 303 303 303 303 303 302 302 302 301 302 302 302 302 301 302 302 302 303 303 303 304 303 304 311 313 311 310 311 310 311 311 311 311 311 312 311 308 311 315 314 316
303 301 299 299 301 301 303 303 302 302 302 302 303 302 302 305 305 305 306 304 304 301 299 303 305 305 309 310 311 307 300 299 300 299 299 300 301 302 301 302 303 304 304 304 304 303 303 303 303 303 302 302 301 301 302 302 301 302 302 302 302 302 303 303 303 304 303 305 312 314 311 310 310 310 311 311 312 312 312 313 312 310 310 313 313 316
302 299 298 300 300 300 302 303 302 302 302 302 303 302 301 306 305 303 305 305 308 309 302 301 305 311 315 316 319 315 308 307 303 301 300 300 301 301 301 303 304 304 305 305 304 303 303 303 303 303 302 301 301 301 301 302 302 302 302 302 302 302 303 303 304 303 303 307 313 313 311 311 310 310 311 312 312 313 313 313 314 314 313 313 314 316
301 298 300 303 301 301 302 301 301 301 302 302 303 301 300 304 305 304 304 304 310 312 302 299 307 310 308 311 315 313 311 310 306 303 302 299 299 300 301 303 303 304 304 304 304 303 303 303 303 303 301 301 301 302 302 302 302 302 303 302 302 302 303 303 303 302 302 308 314 312 310 311 310 309 310 311 313 313 313 315 315 315 315 315 316 316
300 299 302 304 302 302 301 300 301 300 302 304 301 299 301 302 303 305 304 304 307 306 301 301 307 307 305 307 310 308 308 311 309 309 306 300 299 301 302 303 303 304 304 304 304 303 303 303 303 303 301 301 301 302 302 302 302 302 302 303 302 303 303 303 303 302 302 309 314 312 310 311 309 309 309 310 313 313 314 315 316 316 315 316 316 316
300 301 302 303 302 302 301 302 302 300 302 304 298 298 300 300 303 306 307 308 305 302 303 304 303 305 308 308 307 305 307 311 313 313 312 304 301 302 304 304 304 304 304 305 304 303 303 303 303 302 300 300 301 301 302 302 302 302 302 302 302 302 302 302 302 302 302 308 314 313 311 312 310 309 310 311 313 315 316 316 316 316 316 315 316 316
300 300 299 300 302 302 303 303 301 301 303 299 296 298 299 299 302 304 307 310 307 304 306 306 303 304 307 308 308 306 307 312 312 312 313 305 300 302 304 304 304 305 304 304 304 303 303 303 303 302 300 300 301 301 302 301 302 302 301 302 301 301 301 301 301 301 302 306 312 313 313 314 312 311 311 312 314 316 317 318 318 317 317 317 317 315
298 297 298 300 300 299 302 300 297 300 301 298 299 301 300 301 303 304 305 305 306 306 304 304 304 304 306 310 312 309 310 313 311 314 316 305 299 301 304 304 304 305 304 304 304 303 303 303 303 302 300 300 300 301 301 301 301 301 301 301 300 300 300 300 300 301 302 305 309 312 314 314 314 312 312 312 314 317 318 318 319 320 319 318 316 316
299 300 301 301 298 298 301 300 296 297 297 300 306 306 303 305 305 306 306 303 306 307 302 299 301 302 305 310 313 310 310 309 306 312 319 310 302 302 303 305 304 304 304 304 303 303 303 303 302 301 300 300 300 300 301 300 300 300 300 300 299 299 300 299 300 300 302 304 307 310 312 315 316 313 312 312 314 318 320 318 319 321 321 319 318 319
302 301 302 301 298 298 302 302 299 297 297 302 307 305 305 307 304 304 306 304 305 303 297 296 300 300 303 307 307 305 306 307 304 304 309 309 304 302 304 305 303 304 304 303 304 303 303 304 302 301 301 301 301 301 301 301 301 301 301 300 299 299 299 299 300 300 301 302 304 307 312 317 318 314 312 312 313 316 321 321 320 321 320 320 320 321
303 301 301 302 301 300 300 302 300 299 299 301 304 304 304 305 304 305 305 303 304 302 296 296 300 301 304 306 305 305 304 305 302 298 299 302 302 303 304 304 303 304 304 304 304 304 304 303 302 302 302 302 302 302 302 302 302 302 302 302 301 300 299 299 299 300 300 302 302 306 313 318 319 316 313 312 311 313 318 322 322 322 321 321 322 322
305 304 302 302 303 301 300 301 301 300 300 300 303 304 304 305 307 308 307 305 308 305 297 296 301 306 311 310 306 305 303 300 299 299 299 300 302 303 303 303 303 304 304 304 304 304 304 303 302 303 303 303 303 302 303 302 302 302 302 302 303 302 301 300 299 299 299 301 301 303 311 318 320 318 315 312 311 312 314 319 323 323 322 322 323 324
304 306 304 301 300 300 300 301 300 301 301 300 303 304 303 305 308 306 304 304 306 304 300 300 302 306 309 307 303 303 303 300 297 297 298 299 301 302 302 303 304 304 304 304 304 304 304 303 303 303 303 303 304 303 303 302 302 302 301 302 302 302 303 302 300 300 299 300 300 301 305 313 318 320 317 313 311 311 312 316 321 323 322 321 321 324
304 305 301 299 300 300 300 301 301 302 303 301 301 303 302 304 309 306 300 299 301 303 304 303 304 305 305 305 304 304 306 306 303 300 299 297 297 298 300 303 304 305 305 304 304 304 304 304 303 304 303 303 304 303 303 302 302 302 301 301 302 302 302 302 302 301 300 299 299 299 301 305 311 316 318 316 313 311 312 313 317 321 323 323 323 324
306 305 300 298 301 300 298 299 302 302 302 302 302 302 300 302 308 308 303 303 303 304 305 305 305 306 306 307 308 307 306 307 305 304 303 299 296 295 298 302 305 306 305 304 305 304 304 304 304 303 303 303 304 304 303 303 302 301 301 301 301 301 301 302 302 302 302 301 300 299 299 300 303 307 312 316 316 314 312 312 312 315 317 320 321 323
305 305 302 297 299 300 298 300 303 301 299 300 301 302 302 304 306 305 304 306 305 305 309 307 304 304 305 306 308 309 310 311 307 305 305 304 300 296 297 301 304 305 305 305 304 304 304 304 304 304 303 303 303 303 303 303 303 302 302 301 301 301 301 301 302 302 302 302 301 301 300 300 300 300 303 308 313 316 316 314 312 311 312 313 314 317
304 306 304 297 297 300 300 301 303 301 300 301 301 300 303 305 305 304 304 305 306 306 308 308 306 307 306 304 306 308 309 313 313 309 310 309 301 297 298 302 304 304 306 305 304 304 304 304 304 304 303 303 303 303 303 303 303 303 303 302 302 301 301 301 301 301 302 302 302 302 301 301 301 300 300 300 304 310 315 318 316 313 312 312 313 314
304 305 306 299 297 300 301 301 303 302 301 301 301 301 301 303 303 304 304 304 306 307 309 309 307 310 310 304 306 307 305 308 311 310 316 313 300 297 300 303 304 305 305 305 304 304 304 304 304 304 304 304 303 303 303 303 303 303 303 303 302 302 302 301 301 301 301 301 301 301 301 301 301 301 301 300 300 302 306 313 317 318 318 317 317 317
303 304 305 301 298 300 301 301 302 302 301 301 302 302 302 302 302 304 304 303 304 305 309 309 305 308 312 306 304 306 305 307 308 310 317 310 298 299 302 302 304 305 305 305 304 304 304 304 305 304 304 304 303 304 304 303 304 303 303 303 302 302 302 301 301 300 300 300 300 301 301 301 301 301 301 301 301 300 300 303 308 315 319 320 321 321
304 305 305 301 300 301 300 300 301 302 301 302 302 302 302 302 302 303 304 304 302 303 305 306 304 305 309 308 306 304 304 304 302 305 314 306 297 302 304 302 303 304 304 305 305 304 305 304 305 305 304 304 304 304 304 304 304 303 303 303 302 302 301 301 301 301 300 300 300 300 301 301 301 301 301 301 301 301 301 300 301 304 309 314 318 320
304 305 305 303 302 301 301 301 301 301 301 301 302 301 301 302 302 303 304 303 303 303 303 303 303 304 306 309 308 303 301 301 298 298 304 301 298 302 303 302 304 303 303 304 305 305 305 304 305 305 304 304 304 304 304 304 304 304 303 303 302 301 301 300 301 300 300 300 299 299 300 300 301 301 302 302 301 301 301 301 300 300 301 303 307 312
303 303 304 305 304 303 302 302 301 300 301 301 301 301 301 301 301 302 303 303 303 304 304 303 304 304 306 307 305 302 302 305 302 297 297 298 299 302 303 304 304 304 304 304 304 305 305 305 305 305 305 305 304 304 304 304 304 304 303 303 302 301 301 300 300 300 300 300 300 300 299 300 300 301 302 302 301 301 301 301 301 300 300 300 300 302
304 304 304 305 305 305 304 304 303 302 301 301 302 301 301 301 301 301 302 302 303 303 303 303 304 304 305 304 303 303 304 307 306 300 297 298 300 301 303 304 304 304 305 305 304 305 305 305 305 305 305 305 304 305 304 304 304 303 303 303 303 302 301 301 300 300 300 300 300 299 299 299 300 300 301 301 301 301 301 301 300 300 300 300 300 300
304 305 305 304 305 306 306 306 305 303 302 301 302 301 300 300 300 301 302 302 303 303 303 303 303 304 305 304 304 305 306 307 308 306 300 298 300 302 303 304 304 305 305 305 304 304 305 305 305 305 305 305 305 305 304 304 304 303 303 303 303 302 301 301 301 300 300 300 300 299 299 299 299 300 300 300 300 300 301 301 301 300 300 300 300 300
305 305 305 305 305 306 307 306 305 304 303 302 302 301 301 300 300 301 302 302 303 303 303 303 303 303 303 303 305 307 308 307 309 309 303 299 301 303 303 303 304 305 305 305 304 304 305 305 305 305 305 305 305 305 304 304 304 303 304 303 303 302 301 301 301 301 301 301 300 300 299 299 300 300 301 301 301 300 300 300 301 301 301 300 300 300
305 305 305 305 305 305 306 306 304 303 304 303 302 302 301 300 300 301 301 302 302 303 303 303 303 303 302 302 304 306 309 308 307 305 302 299 301 303 303 303 305 305 305 305 305 305 305 305 305 305 305 305 305 304 304 304 304 304 304 304 303 302 301 302 302 302 302 301 301 301 300 300 300 301 302 303 302 302 301 301 300 300 301 301 300 300
304 305 305 305 305 305 305 305 304 303 303 303 302 302 301 301 300 300 301 301 301 302 303 303 303 303 303 303 303 303 304 304 303 301 299 300 302 303 303 303 304 305 306 306 305 305 305 305 305 305 305 305 304 304 304 304 304 303 303 304 303 302 301 302 302 302 302 302 302 302 301 301 302 302 303 303 303 303 302 301 301 301 301 301 301 301
303 305 305 305 305 305 304 304 304 303 304 303 303 302 301 301 300 300 301 301 301 301 302 302 302 302 302 303 303 301 300 301 302 301 300 301 303 303 302 302 304 305 305 305 306 306 305 305 305 305 305 304 304 304 304 304 304 303 303 303 303 302 302 302 302 302 302 302 303 303 303 303 303 303 304 304 303 303 302 302 301 301 301 301 301 301
303 304 305 305 305 305 305 305 304 304 304 304 304 302 301 301 301 301 301 301 302 302 301 302 302 302 302 303 303 302 301 303 304 302 300 301 302 302 301 301 303 304 305 305 306 306 306 305 305 305 305 304 305 304 304 303 303 303 303 303 303 302 302 302 302 302 303 303 303 303 304 304 303 304 304 303 303 303 302 302 302 302 301 301 301 301
300 303 304 305 305 305 305 305 304 305 305 305 305 303 301 301 301 301 301 301 302 302 302 302 302 302 303 304 303 303 303 304 304 302 301 302 302 302 301 301 302 303 304 305 305 305 306 306 305 305 305 305 305 304 304 303 303 303 303 304 304 302 302 302 302 303 303 303 304 304 304 304 304 304 304 304 303 303 303 302 302 302 302 302 302 302
298 302 304 304 304 305 306 305 305 305 305 306 306 304 302 302 301 301 302 301 302 302 302 303 303 302 304 304 303 304 304 302 302 302 302 303 303 302 302 301 302 303 303 304 305 305 305 305 306 305 305 305 305 304 304 303 303 303 303 304 304 302 301 302 302 303 303 303 303 303 303 304 304 304 304 304 303 303 303 303 303 303 302 302 302 302
297 300 303 304 304 304 305 305 305 305 306 308 307 305 303 303 302 302 302 301 302 302 302 302 302 302 303 303 302 302 302 301 301 302 303 303 303 302 302 301 302 302 303 304 304 304 305 305 305 305 304 304 305 304 304 304 303 303 303 304 304 302 302 302 303 303 303 303 303 303 303 303 303 303 304 303 303 303 302 302 302 302 302 302 302 302
296 299 302 303 303 304 305 304 305 307 308 307 306 305 304 303 303 302 302 302 301 301 301 301 301 301 302 302 300 299 300 300 300 301 301 302 302 301 301 302 302 303 303 303 303 304 304 305 305 305 305 305 304 304 304 304 304 303 303 304 304 302 302 302 303 303 303 303 303 303 302 303 303 303 303 303 303 302 301 301 301 301 302 302 302 302
296 298 301 303 303 304 305 304 304 306 307 306 306 305 303 303 303 303 303 303 302 302 301 301 301 301 301 301 300 299 300 300 300 301 301 302 302 302 302 303 303 303 303 302 303 303 304 304 304 305 305 305 305 304 304 304 304 303 303 303 304 303 302 302 303 303 303 303 303 302 302 302 302 302 303 303 303 303 302 301 300 300 300 301 301 301
297 299 300 303 304 304 304 305 305 306 305 305 306 305 303 303 303 303 303 304 303 303 302 301 301 301 301 301 300 299 300 301 301 302 302 302 303 303 304 304 304 303 303 303 303 303 303 303 304 304 304 305 305 305 305 304 304 303 303 303 303 303 302 302 303 303 303 303 302 302 302 302 302 302 302 302 303 303 302 301 300 300 299 299 300 300
298 299 300 302 304 304 304 305 305 305 306 306 305 304 302 301 301 302 303 303 304 304 302 301 301 301 301 301 300 299 300 302 302 302 302 303 304 304 304 304 304 303 304 304 303 303 303 303 303 303 303 303 303 304 304 304 304 304 303 303 303 303 302 302 303 303 303 303 302 302 302 301 301 301 302 302 302 302 302 301 300 300 299 299 299 299
298 299 300 301 303 303 304 304 304 304 305 305 305 304 301 298 300 304 303 304 304 303 301 300 302 302 301 300 300 300 301 301 302 302 302 303 304 304 303 303 303 303 304 304 303 303 303 302 302 302 302 302 303 303 303 303 303 303 303 302 303 303 303 303 303 303 303 302 302 302 302 301 301 301 301 301 301 302 302 301 300 299 299 298 298 298
299 300 301 301 302 303 303 304 304 304 305 305 304 304 301 299 301 304 304 306 306 303 300 300 301 301 300 300 300 300 301 301 302 303 303 303 303 303 303 302 303 303 303 303 303 303 302 302 302 302 302 302 302 302 302 302 302 302 302 302 302 303 304 303 303 302 302 301 301 301 301 301 301 301 301 301 301 301 301 301 300 299 298 297 296 296
298 300 301 301 301 302 302 303 303 304 305 304 302 300 300 301 304 304 305 305 305 302 300 300 300 301 301 301 300 300 301 302 302 303 303 303 303 302 302 302 302 302 302 302 302 302 302 302 302 301 301 301 301 301 301 301 301 302 302 302 302 303 303 303 302 302 301 301 300 300 300 300 300 300 300 300 300 300 301 301 300 299 298 296 296 295
298 300 300 301 302 302 302 303 303 304 305 303 301 300 299 302 305 305 304 304 303 301 300 300 301 302 303 302 301 301 302 302 302 302 302 302 303 303 303 302 301 301 302 301 301 302 302 302 301 301 301 301 301 300 300 300 301 301 301 301 302 303 303 303 302 301 300 300 299 299 299 299 299 300 300 300 300 300 300 300 300 299 298 297 295 295
296 298 298 299 300 300 302 302 301 300 301 301 303 303 302 302 303 303 303 303 301 301 301 300 301 303 304 302 302 302 302 302 303 302 302 302 303 303 303 302 301 301 301 301 301 300 301 301 301 301 301 301 301 300 300 300 300 300 301 301 302 303 303 303 301 300 299 299 298 298 298 298 298 299 299 299 299 299 299 299 299 299 298 297 295 295
294 295 295 295 295 295 298 298 296 295 295 296 299 302 301 300 301 302 303 302 301 301 302 301 300 302 304 303 303 302 302 302 303 303 303 303 302 302 302 302 301 301 301 301 301 300 300 300 300 300 300 300 300 300 300 300 300 300 301 302 302 303 303 302 301 300 299 299 298 298 298 298 298 298 298 298 298 298 298 299 298 298 298 297 296 295
293 294 293 294 294 293 294 295 294 293 293 294 296 297 297 296 297 298 300 300 301 302 303 302 302 302 303 303 303 303 303 303 303 303 303 302 302 301 301 301 302 302 302 301 301 301 301 300 300 300 300 300 300 300 300 300 300 300 301 302 302 303 302 301 301 299 299 298 298 297 298 298 298 297 297 298 298 298 298 297 298 298 298 297 297 296
293 293 293 293 293 292 292 293 293 293 293 294 295 296 296 295 294 295 296 297 298 300 300 301 302 303 303 304 303 303 304 303 303 302 301 301 301 301 301 301 301 301 301 301 301 301 301 301 300 300 300 300 300 300 300 300 300 301 302 302 302 302 301 301 300 299 299 299 299 299 298 298 298 297 297 297 297 297 297 297 297 297 297 297 297 297
293 293 291 292 293 292 291 292 293 293 294 294 295 296 296 295 294 294 295 296 297 298 299 299 299 300 302 303 304 303 303 303 302 302 301 302 302 301 300 300 301 300 300 300 301 301 301 301 301 301 301 301 301 300 300 301 301 301 301 301 301 300 300 300 300 300 300 300 300 300 299 299 298 297 297 297 297 297 297 297 297 297 297 297 297 296
292 291 290 291 292 291 291 292 292 292 293 293 294 296 296 295 294 294 294 295 296 298 299 299 298 298 300 301 302 302 303 303 302 302 302 303 302 302 300 300 300 300 300 300 300 301 301 301 301 301 301 300 300 300 300 300 300 300 300 300 300 300 300 301 301 301 301 301 301 300 300 299 298 297 296 296 297 297 297 297 297 297 297 297 296 296
290 290 290 291 291 290 291 292 292 292 292 293 294 295 295 295 294 294 295 295 297 297 298 299 299 298 298 299 300 301 301 302 302 302 302 302 302 301 300 299 299 300 300 300 300 300 300 300 300 300 300 300 300 300 300 300 300 301 301 301 301 301 302 302 302 302 301 301 301 301 300 299 298 297 297 297 297 297 297 297 297 296 296 296 296 295
290 290 290 290 290 290 291 291 292 292 293 293 294 295 295 294 294 295 296 297 298 298 298 298 298 297 298 298 299 299 300 301 302 302 302 301 301 300 299 299 299 299 299 299 299 300 300 300 300 300 300 300 300 300 301 300 301 301 301 301 301 301 302 302 302 301 301 301 301 301 300 299 299 298 297 297 297 297 297 297 297 297 296 296 296 295
Wind_Speed
5 3 5 7 6 8 10 12 8 2 4 4 3 3 4 5 4 4 2 5 2 1 7 7 11 16 14 14 20 23 18 14 19 24 29 34 38 39 38 38 39 37 25 11 8 7 6 8 10 12 13 13 14 14 15 15 17 18 19 19 17 17 17 17 18 18 20 20 20 23 26 22 18 20 24 28 30 29 32 38 42 47 36 25 24 50
4 6 10 7 7 9 12 10 5 2 1 3 2 2 4 4 5 4 1 4 2 1 4 4 10 18 13 12 19 23 17 15 18 20 26 33 36 36 35 37 37 29 17 10 9 7 6 9 11 12 13 13 13 12 15 16 17 19 19 19 17 16 17 17 17 19 20 20 20 22 20 15 16 20 25 29 31 32 32 38 44 49 46 30 27 35
2 9 9 6 7 8 7 6 6 5 4 1 1 1 4 4 4 4 3 4 2 1 4 6 10 17 14 12 18 20 18 20 23 23 28 32 34 34 33 34 33 24 15 11 9 8 7 9 11 12 12 12 11 12 16 17 18 19 19 18 17 17 17 16 17 19 20 19 19 22 16 14 18 21 25 31 34 33 34 38 42 47 54 45 31 29
4 8 6 7 8 8 5 4 7 5 4 4 3 3 5 2 1 3 4 4 2 0 3 5 9 16 14 11 15 21 20 20 23 25 29 32 33 35 32 31 28 21 15 12 11 10 8 8 11 11 11 11 11 14 17 18 18 18 18 18 17 17 16 16 18 19 21 19 17 22 15 13 20 23 25 29 33 33 36 42 41 41 55 58 39 29
7 4 2 6 8 9 6 4 7 6 4 4 5 7 5 2 3 4 3 3 3 2 2 4 8 13 8 7 11 12 10 12 14 15 20 26 28 28 26 26 26 22 16 13 12 11 9 9 10 11 10 11 12 14 16 17 18 17 17 17 17 18 16 16 18 19 20 18 15 20 18 17 21 24 26 26 28 30 35 41 37 33 44 55 44 32
11 4 6 7 5 7 7 5 7 8 4 3 6 10 8 5 5 2 2 3 5 4 3 4 5 9 4 3 9 7 6 9 8 7 14 22 22 23 26 27 25 23 18 15 14 13 11 9 10 11 10 11 13 14 15 16 17 17 17 18 17 18 16 16 18 18 19 17 11 12 16 20 23 24 25 25 26 27 32 33 29 28 32 43 43 33
6 4 7 7 6 7 6 6 7 8 4 2 4 7 9 6 6 4 3 2 1 5 3 4 1 7 6 4 8 9 11 15 12 9 15 21 21 23 29 32 29 29 25 19 16 14 11 10 11 11 9 11 14 15 16 16 16 17 17 17 18 17 16 16 17 17 19 16 9 6 13 18 22 25 24 27 30 28 26 25 24 25 25 34 38 29
2 5 6 7 7 6 7 6 6 10 6 3 3 3 8 8 7 6 5 3 2 3 3 1 4 4 10 7 5 6 10 14 14 13 13 16 21 21 22 25 24 24 22 17 16 14 12 11 11 10 9 11 15 16 17 16 16 17 17 17 17 17 16 16 16 17 18 17 11 8 15 17 18 22 24 30 34 27 22 21 23 25 26 29 33 28
3 7 9 10 7 5 7 5 10 13 6 3 1 4 7 7 6 5 6 3 1 3 3 2 5 2 10 8 2 1 7 12 14 15 14 13 16 17 15 14 12 13 15 14 15 14 12 11 11 9 8 11 15 17 16 16 16 16 16 16 16 15 15 15 17 17 18 18 14 12 18 21 19 21 27 33 30 21 21 21 24 28 31 33 37 35
2 5 7 8 7 6 4 4 11 14 5 3 5 9 8 7 6 6 4 3 3 3 4 6 7 2 9 9 2 2 5 11 12 12 12 11 13 16 13 12 11 12 14 13 14 14 12 11 11 9 9 12 16 17 16 16 16 15 14 14 14 14 14 16 17 18 19 18 17 17 20 24 22 22 27 30 24 17 18 22 28 30 35 41 45 41
1 1 1 3 4 4 5 4 2 7 9 9 8 8 8 6 5 5 2 4 4 4 5 7 11 5 6 8 3 4 5 7 6 7 8 8 10 14 13 12 13 12 12 13 14 15 13 12 11 10 10 12 15 16 16 15 15 14 13 13 13 14 15 17 18 19 20 19 18 19 20 24 26 23 26 26 20 14 8 13 25 29 34 45 48 43
1 1 0 2 4 6 7 5 5 4 10 8 5 5 5 3 4 5 4 4 2 7 4 2 5 5 5 8 3 4 7 4 5 6 7 7 7 11 14 13 12 10 11 13 15 15 15 13 12 11 12 12 13 13 13 13 13 12 12 12 12 15 16 17 19 20 20 19 19 20 21 25 28 24 24 24 16 10 11 9 11 23 32 42 47 49
2 5 3 1 4 8 7 5 5 2 3 3 5 7 5 2 2 1 3 1 3 6 2 1 1 2 9 12 7 10 14 10 8 8 9 7 6 9 13 12 9 9 11 13 15 16 16 15 13 13 14 13 12 11 10 10 10 10 9 10 10 12 15 16 19 20 21 19 19 20 20 24 27 22 20 20 14 8 9 16 19 29 40 47 52 57
2 3 4 4 3 8 11 7 5 3 4 5 6 7 5 3 2 4 4 2 4 5 1 2 2 2 7 9 10 16 19 15 10 12 15 11 9 8 10 9 7 10 13 13 16 17 17 16 15 16 16 14 12 10 9 8 8 8 7 7 8 9 11 14 17 19 20 19 18 19 18 20 24 20 15 15 12 9 3 8 18 25 37 48 52 54
6 5 8 11 5 10 14 9 8 8 7 7 6 5 5 6 5 6 5 3 4 2 2 2 3 4 5 3 7 11 12 13 13 14 17 17 16 12 9 9 7 9 13 15 16 18 19 18 18 19 18 15 12 9 9 9 8 8 6 5 7 7 8 10 13 17 19 19 17 17 16 16 19 18 17 14 11 10 8 5 14 19 24 29 31 34
8 7 5 6 4 14 16 8 8 10 6 4 2 3 4 5 5 4 4 5 4 1 1 2 4 6 5 7 11 9 8 10 12 12 13 17 20 18 18 19 14 11 13 16 18 19 20 20 21 21 19 16 13 10 9 9 9 9 7 6 6 7 7 7 9 12 16 18 18 17 16 14 14 14 16 17 13 10 8 6 13 21 23 22 20 22
6 4 2 1 3 10 11 7 9 8 5 3 3 5 4 2 7 5 2 1 4 2 4 3 6 6 4 9 13 12 12 10 8 8 9 12 15 16 22 28 26 19 16 18 19 20 21 23 23 22 20 16 13 9 8 9 9 9 9 9 8 8 8 7 6 7 10 14 16 17 16 15 13 12 12 17 17 14 10 8 10 17 23 26 27 27
5 2 2 2 3 3 1 4 4 2 3 5 6 7 3 2 3 4 2 2 3 5 4 2 9 7 2 6 5 4 10 13 11 8 6 8 10 14 21 28 32 27 20 20 21 21 22 24 24 23 20 17 12 9 8 8 9 10 10 10 10 9 9 9 8 8 8 9 11 14 15 15 15 13 12 14 18 18 16 13 11 13 16 20 24 29
3 2 2 0 1 0 2 3 2 2 1 2 4 5 4 2 2 2 3 3 2 5 4 3 7 6 7 8 4 3 7 11 11 7 7 9 9 14 21 25 29 29 25 24 23 23 24 25 24 23 20 17 14 11 10 10 10 11 11 11 11 10 10 10 11 12 11 10 10 10 12 13 15 15 15 14 15 18 20 19 16 15 15 15 16 20
1 3 3 1 1 1 2 4 8 7 2 3 1 3 1 1 4 3 4 3 3 5 5 4 2 4 8 7 7 10 11 9 9 6 8 11 11 16 22 23 26 28 28 28 26 25 25 25 23 22 20 18 16 13 12 12 12 12 12 12 12 11 11 11 12 13 14 14 13 12 11 12 13 14 16 16 15 16 19 21 21 20 19 18 17 17
1 4 3 1 1 2 2 7 10 10 8 4 4 6 4 1 2 1 1 2 4 4 4 4 5 7 6 4 9 13 13 12 10 7 7 9 11 19 24 23 24 28 29 29 29 27 25 24 22 21 20 19 17 16 14 13 13 13 14 14 14 13 13 12 12 12 13 13 14 14 13 13 13 13 14 15 16 17 17 19 21 22 23 22 21 21
4 5 4 3 2 4 4 3 3 6 11 10 8 9 10 7 4 3 4 2 3 3 5 4 7 8 4 5 8 10 10 9 7 6 6 7 11 18 22 23 25 29 30 29 29 29 26 24 21 20 20 20 19 17 16 14 13 13 14 15 15 16 15 14 13 12 12 13 14 15 15 15 16 15 15 15 15 17 18 19 20 22 24 24 24 24
7 2 3 4 4 4 1 1 1 2 7 7 5 6 8 7 7 7 6 4 2 2 2 2 5 7 2 5 7 7 6 4 3 6 6 8 11 14 16 19 22 25 28 28 28 29 27 24 21 19 20 20 20 19 17 16 14 12 12 14 16 17 16 15 14 13 13 13 14 15 16 17 18 18 18 17 16 16 17 19 20 22 23 24 25 26
5 2 4 4 0 1 2 2 2 2 2 4 8 8 7 8 10 6 2 2 3 4 4 3 6 6 2 2 4 4 3 2 4 8 8 9 11 11 11 13 15 18 23 26 28 28 28 26 22 20 21 21 21 21 19 17 15 13 12 13 15 16 16 16 16 16 16 16 15 16 16 18 20 20 20 20 19 18 18 18 20 22 24 25 26 27
8 4 6 4 1 0 1 1 1 1 5 6 7 8 8 9 9 3 1 1 1 6 8 6 9 8 4 3 1 2 3 4 6 10 10 11 12 10 10 11 12 14 19 24 27 28 29 28 24 22 22 23 23 22 20 19 16 15 14 13 14 15 15 16 17 18 18 18 18 18 18 19 20 22 23 22 21 20 19 19 19 21 22 24 26 27
9 7 8 7 5 6 5 4 5 5 6 3 3 8 12 13 12 8 4 4 5 8 8 7 11 8 4 4 3 3 4 5 8 9 9 12 14 13 11 11 12 14 18 23 26 27 29 29 26 24 24 24 24 23 22 21 18 16 16 16 15 15 15 17 18 19 20 20 20 20 20 20 20 22 22 23 23 23 22 21 21 21 22 22 24 25
4 5 11 13 12 12 10 7 5 8 8 8 12 16 15 15 15 11 7 8 11 11 9 11 14 12 12 8 4 5 6 6 8 7 6 10 15 16 15 14 13 14 16 20 24 25 28 30 28 26 25 25 24 24 24 23 21 18 17 18 18 17 16 17 19 21 21 22 22 22 22 21 21 21 21 22 23 23 24 23 23 23 23 23 23 24
2 5 13 16 18 18 16 13 9 13 13 15 18 19 16 16 17 15 12 14 15 11 11 16 16 17 21 15 6 6 7 6 7 8 7 10 13 15 16 15 14 14 15 18 23 26 28 31 31 29 27 26 24 24 25 24 21 18 18 19 19 19 18 18 19 21 22 23 23 23 22 22 21 21 22 22 22 23 24 25 25 24 24 24 24 25
5 9 14 15 18 20 19 16 11 12 13 15 18 20 20 19 20 19 20 21 17 11 14 22 22 20 22 16 9 8 7 6 9 11 10 9 9 11 15 17 16 16 16 19 24 28 30 33 35 33 30 27 25 25 25 25 21 17 17 18 19 20 19 18 20 21 22 23 23 23 22 22 23 23 23 23 23 24 24 25 25 25 25 26 26 26
6 10 14 16 17 19 21 17 11 12 12 12 15 19 21 22 23 23 23 24 23 19 20 27 28 22 17 13 10 11 12 13 13 10 7 7 9 11 14 17 18 17 18 20 23 28 31 34 37 37 32 28 27 27 25 25 21 16 16 17 18 20 19 19 21 21 22 23 22 22 23 23 24 23 23 24 24 24 24 25 25 26 26 26 26 27
8 11 14 14 13 16 20 18 13 14 14 13 15 16 17 20 21 21 21 22 22 22 25 28 27 21 15 12 11 10 14 17 14 8 7 11 14 16 18 19 19 18 20 21 23 26 30 34 38 38 34 30 29 28 25 23 21 17 16 17 18 19 20 21 21 21 21 21 20 20 22 23 24 24 23 24 24 25 25 25 25 26 27 27 26 26
9 10 11 12 11 12 15 18 18 17 17 18 18 14 14 16 17 19 21 22 20 20 22 22 20 18 12 10 10 8 9 13 11 8 11 18 23 24 24 24 23 23 25 25 26 28 31 36 40 41 38 34 32 30 25 21 20 18 18 18 19 20 21 22 22 21 20 19 18 19 20 21 22 23 23 23 24 24 25 25 26 27 27 28 27 27
9 9 9 10 10 11 13 16 16 15 14 15 14 14 16 17 19 19 19 22 21 18 16 15 17 16 7 5 8 8 8 10 10 11 16 24 30 31 30 30 29 29 30 29 30 33 35 39 42 43 42 39 36 34 29 22 19 18 18 18 19 21 23 23 22 21 19 18 17 17 17 18 19 20 21 22 23 23 24 26 27 28 28 28 27 27
11 11 9 8 7 9 13 13 12 12 10 5 9 18 22 21 21 20 19 23 23 19 15 15 19 16 7 6 8 8 8 11 15 21 27 32 34 31 30 31 31 31 32 34 36 39 40 42 43 44 44 41 38 37 32 26 22 19 18 19 21 22 24 24 23 21 19 18 16 15 14 15 16 16 18 20 22 23 24 25 26 26 27 27 27 28
14 12 8 7 6 7 9 11 12 10 5 5 11 19 23 22 22 21 21 24 24 20 19 21 21 17 8 6 8 9 11 16 20 26 34 38 38 33 28 28 30 33 38 41 42 42 42 42 44 44 43 42 41 40 36 32 28 23 20 22 24 24 25 25 25 22 20 18 16 14 13 12 12 12 14 18 20 23 24 25 26 26 26 27 28 28
14 11 8 7 7 6 8 12 12 5 5 13 16 15 15 16 17 16 18 23 23 19 17 19 23 21 14 12 13 13 14 15 17 28 40 43 39 34 31 32 38 43 45 44 43 42 42 43 44 44 43 43 43 42 40 37 33 27 23 24 26 25 26 26 26 23 20 18 16 14 13 11 11 11 12 14 18 20 22 24 26 27 28 29 29 30
15 12 9 7 8 7 9 13 12 8 6 13 12 9 11 14 15 16 15 19 21 19 16 17 22 22 18 16 18 18 16 12 13 30 48 47 40 39 40 45 51 51 46 43 41 41 42 43 44 45 45 44 44 44 41 39 36 30 25 26 28 27 27 28 27 24 21 18 16 15 13 11 10 10 10 12 14 16 18 21 23 26 28 31 32 33
16 14 11 9 7 8 10 11 11 11 11 9 8 8 13 16 18 19 15 15 15 14 15 18 21 22 19 16 15 12 8 6 10 22 28 24 28 37 44 49 51 45 42 42 42 42 43 44 46 47 47 47 46 44 41 40 37 32 27 27 29 29 29 29 28 25 21 17 16 15 13 12 10 9 9 10 11 13 15 18 20 23 25 28 30 31
19 15 12 10 8 9 11 10 9 9 7 8 10 10 12 14 12 11 10 13 9 8 13 17 21 22 19 16 15 10 7 6 16 15 4 4 16 31 34 35 35 32 33 36 36 39 41 43 45 46 45 45 45 42 40 40 38 34 30 29 30 31 30 29 29 25 20 17 16 15 14 12 10 9 9 8 9 11 14 16 18 20 23 25 26 27
15 11 10 9 9 11 11 9 8 6 3 9 12 10 12 15 14 9 9 11 7 10 15 16 18 21 17 14 14 9 8 12 19 15 6 7 21 28 26 25 24 23 24 23 24 28 34 38 41 43 42 42 41 39 39 39 37 34 32 31 31 32 30 29 28 24 19 17 17 16 14 12 10 9 9 8 8 9 12 15 18 20 22 23 24 25
8 7 8 8 10 12 12 10 7 4 3 8 11 11 15 16 12 10 11 6 6 13 21 22 19 19 18 16 12 10 16 29 37 37 31 27 29 30 27 24 21 19 18 17 17 21 24 29 34 37 37 37 36 36 37 37 35 34 33 32 32 32 30 28 27 23 20 19 18 15 13 11 10 10 9 8 8 9 10 13 16 19 21 22 24 25
6 5 5 7 9 9 8 9 8 6 4 7 5 7 16 14 8 9 9 7 9 15 22 26 23 23 26 26 19 18 29 41 47 49 46 41 39 39 35 28 22 21 20 20 20 21 21 24 26 28 29 29 30 33 34 34 33 33 33 33 32 31 28 26 26 24 21 20 18 15 13 12 11 11 11 10 9 9 10 12 14 17 20 22 23 24
5 5 4 6 8 8 9 9 7 6 4 11 7 3 7 8 6 7 10 14 21 22 20 21 26 31 33 30 27 28 34 39 42 42 43 43 43 42 40 36 31 28 28 28 26 23 23 24 24 24 24 25 27 30 31 31 32 32 33 33 31 29 27 26 26 24 22 20 18 15 13 13 12 12 12 11 11 10 10 11 13 15 18 20 21 22
3 4 3 3 2 4 8 7 2 5 4 8 10 7 9 14 16 18 16 13 18 24 23 23 31 39 35 29 30 31 32 36 38 36 35 36 36 35 35 35 32 31 31 30 27 25 25 27 28 27 25 24 25 26 28 29 30 31 33 30 28 28 28 27 26 25 22 21 19 16 15 14 14 14 14 13 13 12 11 11 12 14 16 18 21 22
1 2 1 3 2 2 5 5 3 8 13 14 15 14 10 15 21 26 27 23 24 31 32 28 32 39 37 34 35 32 29 30 29 26 26 27 25 23 24 24 23 24 25 24 23 24 26 28 29 28 26 24 23 23 26 28 29 30 29 27 27 28 28 27 26 24 22 21 20 18 17 16 16 17 16 15 14 13 12 12 12 13 15 17 20 23
2 1 2 2 2 3 5 6 5 9 16 23 28 25 22 22 19 12 10 14 19 30 38 39 39 40 39 38 36 30 26 24 21 19 20 18 16 17 18 19 19 19 21 21 21 21 23 24 25 25 23 22 22 22 23 24 25 26 25 25 27 28 27 26 25 23 22 22 21 20 19 19 19 19 18 17 15 14 13 13 12 13 13 15 18 22
3 1 2 2 2 3 4 5 8 10 13 19 23 22 26 32 35 34 31 27 22 18 21 29 35 38 37 36 33 27 23 19 15 14 13 10 12 16 18 18 18 18 19 20 19 18 18 19 20 20 19 19 21 21 22 23 23 23 24 25 26 26 25 24 22 21 22 22 21 21 22 22 21 21 20 19 17 15 14 14 14 14 13 14 16 18
2 1 0 2 1 1 6 10 10 11 15 17 16 16 22 28 33 35 35 34 31 28 24 21 20 23 28 30 28 23 17 13 10 9 9 11 14 15 15 15 15 16 17 17 15 14 14 13 14 14 15 17 18 20 22 23 23 23 23 23 22 22 21 20 20 21 21 21 21 22 22 22 23 22 21 20 18 16 16 16 15 15 14 13 13 14
3 3 3 4 3 4 9 10 8 10 14 14 13 14 18 22 27 32 35 36 35 31 27 27 24 19 18 18 18 18 15 12 12 11 11 14 15 14 13 13 13 13 14 13 12 11 11 11 11 12 13 15 16 17 19 20 20 19 19 18 18 19 19 20 21 21 21 20 21 22 22 23 23 22 21 20 18 18 17 16 16 16 15 14 13 12
4 6 5 3 4 6 7 5 5 7 9 12 18 21 20 21 24 27 30 33 34 33 32 31 30 26 22 18 14 13 13 14 14 14 14 14 13 11 9 9 9 9 9 10 11 12 12 13 13 13 13 13 13 14 14 14 14 14 14 16 17 19 20 21 21 21 20 20 21 21 22 22 22 21 20 19 18 18 17 17 16 16 15 15 13 12
7 7 6 4 5 10 11 8 7 6 8 15 22 24 22 23 24 24 25 26 27 29 31 32 32 30 28 26 22 19 18 16 15 16 16 13 10 7 3 2 3 4 6 8 9 11 11 11 11 12 12 11 11 10 11 11 12 13 15 17 18 19 20 20 20 19 19 19 20 20 20 20 19 19 18 17 17 18 17 17 17 17 17 16 15 13
Wind_Direction
152 152 217 215 195 172 193 207 199 117 93 132 142 156 199 214 254 250 253 306 339 245 256 239 255 269 270 272 277 278 270 245 246 258 263 267 270 272 274 275 278 282 283 271 245 230 227 257 265 267 270 271 276 265 243 234 229 229 229 231 234 233 239 247 253 265 271 273 271 249 231 237 261 273 279 278 276 271 247 230 226 222 231 272 252 205
131 210 230 206 164 168 198 210 197 220 45 68 123 203 247 224 244 257 258 311 331 252 279 303 281 273 268 265 273 278 273 250 242 248 257 262 267 268 269 272 276 278 270 250 233 213 222 258 265 267 266 266 271 252 231 229 227 228 230 231 233 233 240 247 255 265 269 274 266 242 231 250 277 278 275 275 272 267 251 228 222 224 224 243 270 220
171 235 228 172 153 156 178 196 195 230 261 281 165 219 271 233 233 290 343 335 345 213 286 340 305 281 273 259 264 268 263 259 253 246 252 260 265 266 264 266 270 268 255 242 225 209 218 250 264 267 263 262 259 233 222 223 225 228 230 233 232 233 240 247 256 263 265 273 257 233 236 263 275 277 268 264 260 256 250 232 220 227 227 229 258 242
206 249 230 163 153 144 145 174 177 205 243 222 178 211 255 214 163 280 309 315 343 143 285 324 297 283 275 251 255 260 260 270 269 256 253 256 259 263 264 263 261 254 245 238 222 208 212 240 258 261 256 256 246 224 217 220 225 228 230 233 232 232 239 245 254 262 265 271 252 231 241 274 274 273 265 252 244 241 236 227 220 226 228 225 243 252
220 245 167 138 148 157 153 157 166 184 232 227 206 219 233 152 187 248 286 300 347 11 327 338 298 284 272 238 252 266 275 282 272 259 256 252 253 260 262 255 248 242 239 238 226 210 209 230 246 251 250 247 237 221 216 218 223 226 228 230 230 230 235 242 252 262 263 266 255 236 245 270 273 271 265 247 233 227 218 217 215 215 226 225 235 250
242 211 114 112 140 166 162 179 182 177 205 252 227 218 210 172 178 206 16 7 3 324 313 19 310 283 293 252 263 288 313 290 271 264 265 262 256 252 253 248 237 232 240 247 232 210 209 223 235 244 246 238 227 215 213 216 217 222 225 225 225 227 231 241 251 258 260 262 255 241 257 269 270 275 265 241 233 225 208 207 205 200 215 219 224 243
242 173 119 123 158 170 186 221 197 167 163 258 247 209 196 169 149 145 110 73 309 263 275 64 149 277 298 269 263 283 289 285 287 282 273 272 264 250 249 250 242 236 243 245 228 209 208 219 229 239 243 231 219 211 212 214 216 220 222 223 225 227 232 241 248 252 255 256 235 245 286 277 272 279 265 245 249 240 210 207 211 206 213 211 214 233
139 143 131 137 148 166 205 224 186 160 153 234 276 164 166 155 151 156 122 125 236 272 301 90 134 273 287 263 245 272 279 282 287 280 272 268 263 257 254 251 243 234 233 228 216 208 205 213 227 234 234 222 212 210 212 213 216 221 223 226 227 230 235 240 244 245 250 250 232 260 287 269 271 285 271 266 268 247 217 224 232 228 230 222 217 226
98 164 176 164 158 187 203 175 162 163 163 254 300 102 136 132 131 126 99 114 325 349 303 227 144 225 275 270 268 297 273 273 274 271 268 264 256 254 247 235 222 208 208 211 208 205 202 209 224 229 219 214 209 209 211 212 215 220 223 227 229 232 235 238 241 240 244 245 234 254 270 256 265 283 273 277 277 239 214 236 244 236 236 232 227 229
65 188 188 169 176 199 183 129 166 171 174 187 118 89 85 79 80 81 92 115 56 337 249 196 165 210 276 266 186 123 257 259 265 267 265 269 254 241 230 212 200 194 200 207 202 198 199 205 216 220 207 204 205 207 209 211 213 217 222 225 228 231 232 234 236 236 238 241 236 242 253 249 253 269 271 274 274 244 228 248 254 244 234 228 225 226
41 75 155 183 190 168 118 74 148 160 146 138 111 84 71 51 47 52 42 81 66 283 253 191 180 175 283 275 185 176 229 225 247 281 284 288 256 226 211 191 186 191 199 202 198 196 197 202 210 207 197 197 201 204 207 210 214 220 225 226 227 228 230 231 230 232 235 237 238 240 248 251 246 253 270 274 273 276 286 266 254 242 226 218 217 214
258 130 175 218 165 128 106 64 25 101 137 126 96 110 95 17 14 28 353 51 115 250 270 238 197 157 237 259 216 241 274 230 216 263 280 290 257 205 184 173 174 186 199 199 197 195 195 200 202 193 186 187 193 197 200 204 210 219 224 224 224 226 229 230 227 228 232 234 238 240 248 254 247 246 265 277 283 310 18 62 194 205 199 199 198 193
239 210 201 192 170 159 137 88 42 39 153 109 104 129 116 7 10 349 291 122 213 250 279 267 252 172 237 256 270 276 279 256 218 225 237 248 246 205 177 172 181 191 196 194 194 194 193 194 190 182 176 173 179 184 184 189 199 208 216 213 214 222 227 230 228 226 227 231 237 241 248 255 250 244 259 278 286 305 33 85 132 161 170 175 177 177
274 254 180 171 211 185 169 151 147 187 199 169 150 147 144 144 166 231 241 236 253 270 312 215 210 262 266 273 257 250 258 256 235 226 235 243 245 217 177 175 195 197 193 192 193 193 190 187 181 174 168 165 172 179 179 183 193 203 209 200 198 213 222 226 229 228 226 227 233 240 246 254 252 242 247 272 278 275 297 116 133 147 160 167 169 172
218 269 194 184 184 173 183 189 165 148 163 186 170 143 162 168 178 206 202 198 226 253 317 237 196 203 223 261 242 232 249 266 260 239 239 250 252 239 212 207 210 199 196 193 193 192 187 182 179 176 169 166 172 183 190 192 201 210 212 198 190 203 216 222 226 228 227 226 228 236 241 249 254 241 230 246 261 262 267 200 161 157 162 168 173 179
210 259 219 190 148 161 181 186 141 130 154 205 141 119 203 196 149 145 183 172 153 173 273 221 230 222 220 276 277 253 243 254 254 241 230 239 245 242 239 237 232 215 203 198 195 191 186 182 182 182 176 171 175 187 196 197 207 215 217 214 199 197 208 217 225 226 227 226 226 232 235 239 251 245 222 223 238 245 247 220 181 173 172 176 188 200
200 270 335 103 134 170 184 170 156 158 157 161 170 187 209 158 111 111 230 70 87 229 242 184 244 277 296 280 269 252 252 253 241 230 222 230 234 234 237 238 236 229 213 202 196 189 185 184 186 188 183 179 180 191 199 198 206 215 224 229 221 211 208 205 213 222 226 228 227 229 232 231 237 245 225 216 227 234 226 212 193 182 180 182 188 198
185 272 338 159 182 205 179 123 162 212 131 139 189 195 143 68 95 111 229 353 62 243 262 203 235 260 276 266 269 236 245 252 245 229 225 234 224 223 232 233 232 228 216 204 195 189 188 187 189 192 189 187 188 199 209 207 211 218 229 237 237 235 226 211 207 213 223 232 230 229 232 232 229 233 231 217 219 227 227 217 202 191 191 192 195 199
177 226 284 217 195 235 62 112 176 293 159 159 213 191 135 165 198 131 182 204 178 228 266 264 243 239 218 233 263 227 226 247 254 236 220 231 220 219 229 230 225 220 212 203 194 190 191 191 193 196 195 194 196 210 222 222 226 230 235 244 247 247 241 228 218 215 222 232 236 232 230 232 230 227 228 222 214 217 222 222 215 204 201 206 210 212
138 216 256 303 239 133 82 188 199 197 187 20 352 196 145 160 190 171 172 175 169 202 242 284 284 241 224 212 210 225 230 241 248 227 217 228 220 217 223 223 218 210 204 199 192 191 193 194 197 201 202 202 204 215 227 232 239 243 244 249 253 252 249 241 231 224 227 233 236 236 231 230 232 230 230 228 221 214 212 217 219 214 212 214 216 220
117 222 226 65 290 233 176 209 205 186 174 157 166 187 192 152 149 197 219 131 133 172 210 261 266 253 241 189 191 215 227 228 221 204 216 230 222 219 220 217 208 200 198 197 193 193 194 196 201 204 207 209 210 217 224 232 240 244 247 250 253 256 254 249 242 233 231 233 234 235 233 231 232 232 233 230 227 222 214 211 213 214 215 216 218 219
190 219 202 133 205 216 201 234 231 186 186 190 191 190 192 186 157 183 227 190 136 183 184 200 255 263 245 193 201 213 224 231 214 190 216 235 223 219 219 216 207 198 197 197 196 197 197 197 202 205 209 212 214 218 220 224 232 239 245 250 253 255 255 252 250 243 237 235 235 235 232 230 231 231 234 233 229 226 221 216 212 213 214 214 216 217
192 166 180 182 204 210 213 341 338 202 201 210 230 214 196 196 194 198 217 198 155 220 176 140 262 272 246 186 207 224 232 238 206 193 219 245 234 225 222 220 216 210 206 204 202 202 200 199 203 206 211 214 215 216 218 220 227 235 243 248 251 254 253 252 252 250 246 241 236 235 232 229 229 229 231 232 231 229 225 222 218 216 217 216 216 216
186 131 197 203 212 342 337 332 8 42 157 213 239 226 197 208 214 203 191 161 165 216 198 193 248 262 291 205 213 256 268 245 226 217 224 251 253 247 236 227 223 218 212 209 206 204 202 201 204 208 211 213 214 216 219 222 227 234 242 245 248 252 253 251 251 251 250 247 242 237 233 230 230 230 230 231 231 231 229 227 224 221 220 219 219 219
182 180 198 196 174 154 109 219 260 223 200 212 228 215 202 214 213 181 86 113 227 217 192 206 241 245 284 311 323 312 272 259 253 232 226 246 258 258 246 232 226 217 209 207 208 206 203 202 204 209 213 215 216 217 221 226 230 236 243 247 246 248 251 252 252 252 250 249 247 244 239 235 233 233 233 233 232 233 232 231 230 227 224 223 222 222
178 186 186 188 206 206 196 203 205 195 196 208 216 203 203 204 196 193 216 214 229 221 192 209 242 251 297 319 327 304 260 256 261 241 229 240 249 254 249 233 225 217 210 210 210 208 206 204 206 209 213 217 218 220 223 227 233 240 244 246 246 243 244 249 253 254 254 252 249 247 245 241 238 236 236 237 236 236 236 236 234 232 230 228 226 225
176 201 190 197 211 216 225 226 153 132 157 195 211 207 204 201 195 200 215 213 224 232 223 229 243 259 265 250 248 278 254 244 257 249 234 239 245 250 245 231 221 218 218 216 211 210 210 208 209 210 213 217 219 222 225 226 233 244 247 245 243 240 239 244 250 254 256 256 253 251 249 247 246 245 241 240 239 238 237 237 236 234 232 230 230 228
183 219 200 208 217 220 230 226 168 148 174 198 207 207 202 198 195 199 214 220 222 230 244 243 237 246 253 243 218 244 250 248 259 259 248 240 243 246 241 231 221 218 224 222 213 212 213 212 212 214 214 215 218 222 225 224 231 247 251 244 239 237 238 240 245 250 254 256 256 254 254 254 253 252 250 246 241 237 235 235 234 233 231 230 230 230
195 221 207 210 221 226 233 227 187 171 189 197 201 203 199 196 194 199 214 225 224 222 243 247 239 237 247 248 230 228 235 236 247 252 249 238 237 239 234 228 222 218 224 225 217 215 216 215 216 218 216 215 218 223 225 224 230 248 256 246 237 234 237 239 242 246 251 254 256 255 255 255 255 254 253 249 244 240 236 234 233 231 230 229 229 229
204 215 205 207 221 229 233 229 196 186 203 204 202 201 196 193 195 200 211 223 226 225 236 247 249 245 245 250 244 227 219 230 245 250 237 222 228 235 232 226 224 224 228 230 225 222 223 222 222 222 220 217 218 221 223 224 230 248 259 250 239 235 235 238 239 244 249 253 255 256 254 253 252 251 249 247 245 242 238 235 232 231 231 231 230 229
224 212 203 204 218 227 229 229 212 205 216 217 211 205 196 194 195 200 211 222 225 229 236 245 255 258 252 251 250 224 211 227 243 243 235 243 244 244 242 237 234 235 239 241 238 236 235 231 227 225 223 220 219 219 221 225 233 249 259 250 240 236 236 237 238 241 248 252 253 252 250 249 248 246 244 243 241 240 238 236 233 231 231 231 231 231
246 226 206 205 221 224 220 222 220 219 226 229 221 204 190 193 197 200 211 218 217 223 235 243 253 259 253 238 237 219 202 221 236 238 249 258 255 250 248 243 240 240 243 245 246 246 246 241 234 229 226 225 222 219 220 228 236 249 257 250 241 237 235 236 237 239 244 247 246 245 244 243 243 243 241 240 238 237 236 235 234 233 232 232 233 233
265 245 215 209 221 219 214 218 217 217 229 234 219 198 191 196 201 204 213 222 219 216 223 233 240 244 232 180 206 215 206 214 226 228 239 252 254 253 250 246 244 244 244 246 249 249 248 247 243 237 232 229 227 225 227 233 242 254 259 249 239 236 235 235 236 236 237 238 238 239 238 237 237 236 236 238 239 238 235 234 233 232 233 233 234 235
267 256 230 216 219 217 216 217 215 217 225 213 183 196 202 201 201 206 214 222 222 217 220 234 241 241 222 174 195 208 209 216 222 228 236 247 252 252 251 249 247 247 246 246 248 248 248 249 249 243 236 232 231 231 233 239 248 258 257 242 234 233 234 233 232 232 233 235 236 236 235 235 234 230 227 228 233 237 237 237 236 235 235 235 235 237
264 259 239 228 227 219 215 218 227 228 206 158 181 201 206 204 204 210 219 226 225 220 224 238 248 249 234 207 206 203 213 226 233 239 244 248 251 252 253 252 250 250 250 247 245 247 248 248 250 248 240 234 234 235 239 244 252 258 254 240 233 232 231 231 230 229 231 233 236 235 233 234 234 229 223 219 221 226 231 234 236 237 238 238 238 239
247 253 246 236 230 219 213 221 235 243 160 180 198 201 197 201 208 214 228 236 232 223 222 235 248 250 241 238 233 223 235 254 263 261 256 252 254 256 254 255 256 254 253 250 247 247 249 250 252 253 249 242 237 237 242 249 253 257 253 240 234 232 231 229 227 228 230 231 233 234 233 233 233 232 228 222 220 220 221 224 227 230 233 236 238 239
228 242 246 235 224 223 227 229 238 260 223 198 200 192 176 183 197 206 226 239 232 223 218 225 242 247 241 243 243 238 252 279 286 269 262 257 256 258 256 258 260 258 256 256 254 251 252 251 251 253 253 249 244 243 248 254 256 256 250 240 234 231 230 228 226 227 228 229 230 231 231 231 232 233 233 231 228 226 222 220 220 220 222 226 229 231
214 222 231 237 225 215 233 238 233 239 234 206 194 192 184 188 194 196 214 238 231 215 211 219 238 245 240 242 240 225 230 261 266 266 264 253 250 256 258 259 260 260 260 260 259 256 254 252 251 250 251 250 249 250 253 255 256 254 248 240 233 230 228 227 225 225 226 225 226 229 230 230 230 232 236 237 235 233 230 227 224 222 221 222 224 226
216 216 221 235 232 211 222 235 228 231 227 191 187 192 188 188 180 172 210 238 228 197 198 209 228 238 239 239 229 192 155 230 254 255 207 169 250 258 259 259 260 264 266 264 263 261 259 256 253 250 249 248 249 250 249 250 252 250 245 239 233 228 227 226 224 224 223 220 222 227 229 228 230 235 241 243 240 237 234 232 231 229 228 227 228 229
221 219 214 225 235 224 227 233 227 242 228 178 184 193 180 165 149 154 215 230 210 199 200 201 219 229 231 233 226 198 171 218 245 249 210 228 263 265 264 266 267 269 269 268 269 268 264 260 254 250 249 248 248 248 247 247 247 244 240 238 232 226 225 225 223 221 217 216 220 226 228 229 234 242 248 250 247 243 239 235 232 231 231 230 230 229
231 222 214 224 231 227 234 239 235 255 233 184 188 182 157 146 153 193 216 201 170 199 205 204 214 223 224 228 221 200 211 228 242 253 257 260 267 270 272 275 273 269 265 265 270 270 265 262 257 254 253 252 250 248 245 243 242 238 235 235 230 224 223 224 221 216 213 217 222 225 228 233 238 245 250 254 253 249 244 238 234 232 231 230 229 228
250 232 214 223 228 227 239 246 246 259 213 172 175 161 152 158 197 213 201 187 191 208 209 204 206 216 226 233 229 219 228 236 243 252 259 263 267 270 272 273 269 264 262 262 267 266 260 257 255 252 251 250 247 245 242 239 237 233 231 232 228 222 221 222 217 213 214 219 223 225 230 236 242 246 250 253 256 257 252 244 237 234 232 231 229 227
260 263 231 219 225 228 233 229 238 272 201 158 150 142 163 191 215 175 177 204 210 213 208 192 196 212 225 234 235 231 237 243 247 251 255 260 265 269 271 271 268 266 266 265 264 262 257 254 251 249 250 248 245 242 237 233 231 227 226 228 224 218 220 220 215 212 216 222 226 229 234 240 245 249 253 254 256 259 256 248 242 239 236 233 232 229
275 270 270 279 261 235 240 230 228 330 299 180 185 209 213 217 204 178 178 204 213 215 210 193 197 211 220 233 240 238 240 245 249 252 254 258 264 269 272 273 271 269 268 266 262 258 254 253 255 257 256 249 242 236 228 223 222 221 222 222 217 215 220 219 212 211 218 226 230 233 237 242 247 250 253 253 254 256 255 250 245 243 241 238 235 231
222 148 193 273 280 256 262 265 310 337 334 324 310 307 287 250 225 202 198 202 203 209 212 208 207 211 217 231 241 240 240 242 247 255 258 260 266 271 274 275 272 268 267 264 260 255 252 252 255 257 254 244 233 225 220 215 214 215 215 212 210 215 220 217 211 213 223 231 236 239 241 243 247 249 251 252 253 255 256 252 248 246 245 242 238 234
309 71 141 203 266 283 245 245 295 331 337 330 325 336 357 352 337 319 273 244 224 217 216 217 217 218 221 229 232 232 236 240 245 253 254 258 273 283 283 277 269 263 260 257 254 250 246 247 248 247 243 234 220 211 207 207 207 207 204 204 209 216 218 213 211 217 228 234 240 243 244 245 246 248 250 252 253 254 254 253 251 249 248 247 244 240
278 252 168 198 311 336 265 275 322 329 320 317 321 342 6 4 355 352 347 338 327 299 257 238 230 224 222 223 223 224 232 236 239 246 249 264 292 295 283 270 261 257 255 251 246 242 239 240 240 236 229 217 205 195 192 194 198 199 201 206 211 212 211 212 216 225 232 237 241 244 245 246 247 247 250 252 254 255 255 255 253 251 252 253 251 248
250 50 52 240 217 214 272 288 309 305 292 298 315 343 2 359 351 346 343 339 335 327 314 298 273 243 225 218 215 218 227 234 242 256 271 293 305 299 282 269 262 258 253 244 233 227 225 223 223 220 209 197 191 186 186 189 194 198 200 204 206 208 212 218 226 233 237 239 241 242 244 245 246 246 249 251 254 257 259 261 261 260 262 265 264 260
294 325 305 281 286 279 276 286 310 311 299 296 307 329 347 351 345 338 336 335 333 327 319 316 310 289 257 233 217 210 219 240 258 271 282 290 291 287 281 276 266 252 239 224 206 193 184 179 177 176 174 173 174 175 178 182 187 191 195 200 205 212 219 225 231 236 238 238 239 240 243 244 244 245 246 249 254 258 259 262 264 265 268 270 271 273
268 273 261 269 288 277 273 292 324 319 305 299 305 316 328 336 335 331 328 328 329 328 326 323 317 305 287 270 248 228 231 250 263 271 276 272 263 262 269 268 252 229 207 190 178 167 160 157 154 154 156 157 159 164 169 175 182 190 198 207 214 219 223 227 231 233 232 233 235 238 242 243 243 244 245 249 254 257 258 260 263 266 269 270 272 276
236 249 251 248 263 265 266 277 286 280 278 285 292 301 314 324 327 323 320 319 319 322 327 328 322 312 297 283 271 259 255 260 266 268 263 244 211 193 204 231 218 205 195 187 178 169 165 162 158 156 157 160 167 177 183 188 195 203 209 215 220 224 227 229 231 230 229 231 235 239 242 245 245 246 247 250 253 255 258 260 262 265 269 270 273 276